Hourly Data Report for July 30, 2021

FLIN FLON
MANITOBA
Current Station Operator: ECCC - MSC

54°41'00.000" N
101°41'00.000" W
303.90 m
5050919
71954
WFO

Download Data

Hourly Data (July 2021)
Hourly Data Report for July 30, 2021
TIME
LST
Temp Definition
°C
Dew Point Definition
°C
Rel Hum Definition
%
Precip. Amount Definition
mm

Wind Dir Definition
10's deg

Wind Spd Definition
km/h
Visibility Definition
km
Stn Press Definition
kPa
Hmdx Definition


Wind Chill Definition


Weather Definition


00:00 19.9 15.5 76 0.0 19 6   97.92     LegendNANA
01:00 19.5 16.2 81 0.0 20 2   97.92     LegendNANA
02:00 19.0 15.4 80 0.0   0   97.90     LegendNANA
03:00 20.1 14.9 72 0.0 26 10   97.87     LegendNANA
04:00 19.2 15.2 78 0.0 30 9   97.88     LegendNANA
05:00 19.4 13.7 70 0.0 30 11   97.88     LegendNANA
06:00 19.0 13.3 70 0.0 32 11   97.92     LegendNANA
07:00 20.1 13.6 66 0.0 32 15   97.94     LegendNANA
08:00 21.4 13.4 60 0.0 34 11   98.00     LegendNANA
09:00 23.0 12.8 52 0.0 36 13   98.06 26   LegendNANA
10:00 24.2 10.4 42 0.0 1 14   98.09 26   LegendNANA
11:00 25.4 10.0 38 0.0 36 19   98.12 27   LegendNANA
12:00 25.8 10.3 38 0.0 35 21   98.16 27   LegendNANA
13:00 26.5 10.4 37 0.0 34 21   98.18 28   LegendNANA
14:00 26.6 8.9 33 0.0 34 21   98.18 27   LegendNANA
15:00 25.8 9.3 35 0.0 34 26   98.20 27   LegendNANA
16:00 26.0 9.0 34 0.0 35 25   98.22 27   LegendNANA
17:00 25.5 9.2 36 0.0 36 26   98.26 26   LegendNANA
18:00 25.2 9.1 36 0.0 35 21   98.29 26   LegendNANA
19:00 24.3 8.7 37 0.0 36 20   98.30 25   LegendNANA
20:00 23.3 7.5 36 0.0 2 13   98.33     LegendNANA
21:00 20.4 8.2 45 0.0 1 7   98.39     LegendNANA
22:00 19.3 8.6 50 0.0 1 7   98.45     LegendNANA
23:00 17.6 8.7 56 0.0 36 6   98.50     LegendNANA

Notes on Data Quality.

Legend

  • E = Estimated
  • M = Missing
  • NA = Not Available*
  • [empty] = Indicates an unobserved value
Date modified: